GLO2035 SBEG-SBGL

Flight info

Callsign GLO2035
Flight time N/A
Altitude 37000
Route GIKVI UZ6 MULUV UZ24 MAVGU
Aircraft B738/M-SDFGIKLORWXY/LB1

Departure

Time 2026-04-30 21:06
Airport Eduardo Gomes International Airport (SBEG)

Arrival

Time N/A
Airport Rio Galeão – Tom Jobim International Airport (SBGL)
Time Latitude Longitude Altitude Speed Heading
2026-04-30 20:50 -3.03272 -60.04581 269 ft 0 kts 357°
2026-04-30 20:59 -3.03305 -60.04578 289 ft 4 kts 349°
2026-04-30 20:59 -3.03331 -60.04571 265 ft 4 kts 335°
2026-04-30 21:00 -3.03353 -60.04548 265 ft 1 kts 265°
2026-04-30 21:01 -3.03356 -60.04594 265 ft 8 kts 269°
2026-04-30 21:02 -3.03353 -60.04666 269 ft 13 kts 272°
2026-04-30 21:02 -3.03368 -60.04764 269 ft 16 kts 244°
2026-04-30 21:02 -3.03447 -60.04859 269 ft 20 kts 218°
2026-04-30 21:02 -3.03554 -60.04957 269 ft 22 kts 236°
2026-04-30 21:03 -3.03605 -60.05097 269 ft 21 kts 255°
2026-04-30 21:03 -3.03643 -60.05239 269 ft 21 kts 255°
2026-04-30 21:03 -3.03675 -60.05376 269 ft 20 kts 266°
2026-04-30 21:03 -3.03691 -60.05513 269 ft 19 kts 267°
2026-04-30 21:04 -3.03691 -60.05646 269 ft 19 kts 270°
2026-04-30 21:04 -3.03691 -60.05775 269 ft 18 kts 269°
2026-04-30 21:04 -3.03690 -60.06019 269 ft 17 kts 270°
2026-04-30 21:05 -3.03701 -60.06133 269 ft 16 kts 246°
2026-04-30 21:05 -3.03794 -60.06174 269 ft 16 kts 173°
2026-04-30 21:05 -3.03858 -60.06110 270 ft 8 kts 91°
2026-04-30 21:05 -3.03858 -60.06045 270 ft 20 kts 90°
2026-04-30 21:06 -3.03858 -60.05647 269 ft 94 kts 90°
2026-04-30 21:06 -3.03863 -60.04776 270 ft 155 kts 90°
2026-04-30 21:06 -3.03842 -60.03557 498 ft 187 kts 88°
2026-04-30 21:06 -3.03836 -60.02289 1408 ft 179 kts 90°
2026-04-30 21:07 -3.03865 -60.01080 2360 ft 174 kts 98°
2026-04-30 21:07 -3.04468 -59.99951 2697 ft 204 kts 141°
2026-04-30 21:07 -3.05710 -59.99105 2921 ft 229 kts 142°
2026-04-30 21:07 -3.07024 -59.98061 3139 ft 253 kts 140°
2026-04-30 21:08 -3.08407 -59.96903 3754 ft 264 kts 139°
2026-04-30 21:08 -3.09826 -59.95710 4635 ft 267 kts 139°
2026-04-30 21:08 -3.11254 -59.94514 5502 ft 269 kts 139°
2026-04-30 21:08 -3.12699 -59.93307 6315 ft 273 kts 139°
2026-04-30 21:09 -3.14164 -59.92087 7074 ft 275 kts 139°
2026-04-30 21:09 -3.15644 -59.90857 7873 ft 277 kts 139°
2026-04-30 21:09 -3.17135 -59.89621 8654 ft 280 kts 138°
2026-04-30 21:09 -3.18647 -59.88368 9417 ft 283 kts 138°
2026-04-30 21:10 -3.20176 -59.87103 10122 ft 288 kts 138°
2026-04-30 21:10 -3.21782 -59.85772 10337 ft 311 kts 138°
2026-04-30 21:10 -3.23489 -59.84358 10525 ft 332 kts 138°
2026-04-30 21:10 -3.25303 -59.82858 10956 ft 342 kts 139°
2026-04-30 21:11 -3.27152 -59.81332 11605 ft 345 kts 139°
2026-04-30 21:11 -3.29004 -59.79804 12314 ft 346 kts 138°
2026-04-30 21:11 -3.30874 -59.78262 12980 ft 349 kts 138°
2026-04-30 21:11 -3.32755 -59.76710 13597 ft 353 kts 138°
2026-04-30 21:12 -3.34659 -59.75138 14146 ft 356 kts 138°
2026-04-30 21:12 -3.36576 -59.73555 14709 ft 359 kts 138°
2026-04-30 21:12 -3.38512 -59.71957 15265 ft 362 kts 138°
2026-04-30 21:12 -3.40463 -59.70345 15819 ft 365 kts 138°
2026-04-30 21:13 -3.42430 -59.68721 16361 ft 368 kts 138°
2026-04-30 21:13 -3.44414 -59.67082 16891 ft 371 kts 138°
2026-04-30 21:13 -3.46411 -59.65433 17403 ft 374 kts 138°
2026-04-30 21:13 -3.48431 -59.63764 17902 ft 378 kts 138°
2026-04-30 21:14 -3.50463 -59.62085 18358 ft 381 kts 138°
2026-04-30 21:14 -3.52515 -59.60390 18787 ft 383 kts 138°
2026-04-30 21:14 -3.54577 -59.58686 19216 ft 386 kts 138°
2026-04-30 21:14 -3.56659 -59.56967 19631 ft 389 kts 138°
2026-04-30 21:15 -3.58728 -59.55258 20029 ft 392 kts 138°
2026-04-30 21:15 -3.60838 -59.53513 20424 ft 395 kts 138°
2026-04-30 21:15 -3.62962 -59.51758 20820 ft 398 kts 138°
2026-04-30 21:15 -3.65104 -59.49988 21208 ft 401 kts 138°
2026-04-30 21:16 -3.67263 -59.48204 21588 ft 403 kts 138°
2026-04-30 21:16 -3.69433 -59.46410 21957 ft 406 kts 138°
2026-04-30 21:16 -3.71620 -59.44602 22323 ft 409 kts 138°
2026-04-30 21:16 -3.73826 -59.42778 22696 ft 412 kts 138°
2026-04-30 21:17 -3.76051 -59.40939 23042 ft 415 kts 138°
2026-04-30 21:17 -3.78285 -59.39092 23381 ft 418 kts 138°
2026-04-30 21:17 -3.80535 -59.37232 23652 ft 420 kts 138°
2026-04-30 21:17 -3.82794 -59.35364 23938 ft 423 kts 139°
2026-04-30 21:18 -3.85044 -59.33504 24222 ft 425 kts 139°
2026-04-30 21:18 -3.87323 -59.31619 24515 ft 426 kts 139°
2026-04-30 21:18 -3.89614 -59.29725 24797 ft 429 kts 139°
2026-04-30 21:18 -3.91921 -59.27817 25069 ft 431 kts 139°
2026-04-30 21:19 -3.94234 -59.25904 25348 ft 433 kts 139°
2026-04-30 21:19 -3.96562 -59.23978 25626 ft 435 kts 139°
2026-04-30 21:19 -3.98897 -59.22047 25898 ft 437 kts 139°
2026-04-30 21:19 -4.01246 -59.20103 26169 ft 438 kts 139°
2026-04-30 21:20 -4.03604 -59.18151 26434 ft 440 kts 139°
2026-04-30 21:20 -4.05968 -59.16195 26700 ft 442 kts 139°
2026-04-30 21:20 -4.08347 -59.14227 26959 ft 444 kts 139°
2026-04-30 21:20 -4.10735 -59.12251 27222 ft 446 kts 139°
2026-04-30 21:21 -4.13126 -59.10272 27480 ft 447 kts 139°
2026-04-30 21:21 -4.15530 -59.08281 27732 ft 449 kts 139°
2026-04-30 21:21 -4.20361 -59.04282 28245 ft 452 kts 139°
2026-04-30 21:22 -4.22789 -59.02272 28494 ft 453 kts 139°
2026-04-30 21:22 -4.30107 -58.96211 29194 ft 457 kts 139°
2026-04-30 21:23 -4.32565 -58.94175 29427 ft 459 kts 139°
2026-04-30 21:23 -4.35030 -58.92133 29639 ft 460 kts 139°
2026-04-30 21:23 -4.39983 -58.88029 30017 ft 463 kts 139°
2026-04-30 21:24 -4.42469 -58.85969 30178 ft 465 kts 139°
2026-04-30 21:24 -4.44935 -58.83926 30359 ft 466 kts 139°
2026-04-30 21:24 -4.47440 -58.81850 30594 ft 466 kts 139°
2026-04-30 21:24 -4.49931 -58.79785 30842 ft 465 kts 139°
2026-04-30 21:25 -4.54927 -58.75643 31265 ft 466 kts 139°
2026-04-30 21:25 -4.57409 -58.73548 31494 ft 466 kts 137°
2026-04-30 21:25 -4.59827 -58.71389 31738 ft 465 kts 136°
2026-04-30 21:26 -4.64596 -58.66992 32201 ft 465 kts 136°
2026-04-30 21:26 -4.66980 -58.64791 32438 ft 465 kts 136°
2026-04-30 21:27 -4.71754 -58.60415 32952 ft 465 kts 136°
2026-04-30 21:27 -4.74142 -58.58240 33210 ft 464 kts 136°
2026-04-30 21:27 -4.76503 -58.56092 33460 ft 464 kts 136°
2026-04-30 21:28 -4.81278 -58.51751 33954 ft 463 kts 136°
2026-04-30 21:28 -4.83667 -58.49579 34183 ft 462 kts 136°
2026-04-30 21:28 -4.88427 -58.45249 34628 ft 462 kts 136°
2026-04-30 21:29 -4.90802 -58.43088 34844 ft 461 kts 136°
2026-04-30 21:29 -4.97931 -58.36599 35439 ft 461 kts 136°
2026-04-30 21:30 -5.02684 -58.32272 35844 ft 461 kts 136°
2026-04-30 21:31 -5.09803 -58.25789 36408 ft 461 kts 136°
2026-04-30 21:31 -5.14547 -58.21467 36787 ft 460 kts 136°
2026-04-30 21:32 -5.21673 -58.14974 36835 ft 462 kts 136°
2026-04-30 21:32 -5.26430 -58.10670 36830 ft 459 kts 137°
2026-04-30 21:33 -5.33538 -58.04285 36838 ft 455 kts 137°
2026-04-30 21:34 -5.38246 -58.00050 36840 ft 454 kts 136°
2026-04-30 21:34 -5.45296 -57.93699 36836 ft 454 kts 137°
2026-04-30 21:35 -5.50011 -57.89450 36839 ft 456 kts 137°
2026-04-30 21:35 -5.54739 -57.85188 36839 ft 458 kts 137°
2026-04-30 21:36 -5.59492 -57.80902 36843 ft 460 kts 137°
2026-04-30 21:37 -5.69027 -57.72303 36835 ft 464 kts 137°
2026-04-30 21:37 -5.73840 -57.67962 36834 ft 465 kts 137°
2026-04-30 21:38 -5.77842 -57.64350 36828 ft 465 kts 137°
2026-04-30 21:38 -5.82656 -57.60005 36829 ft 465 kts 137°
2026-04-30 21:39 -5.87464 -57.55665 36829 ft 464 kts 137°
2026-04-30 21:39 -5.92254 -57.51340 36831 ft 462 kts 137°
2026-04-30 21:40 -5.97027 -57.47029 36831 ft 461 kts 137°
2026-04-30 21:40 -6.01792 -57.42724 36827 ft 459 kts 137°
2026-04-30 21:41 -6.06502 -57.38468 36830 ft 458 kts 137°
2026-04-30 21:41 -6.11235 -57.34189 36830 ft 457 kts 137°
2026-04-30 21:42 -6.15965 -57.29913 36836 ft 456 kts 137°
2026-04-30 21:42 -6.20681 -57.25648 36839 ft 456 kts 137°
2026-04-30 21:43 -6.25400 -57.21379 36835 ft 456 kts 137°
2026-04-30 21:43 -6.30097 -57.17129 36837 ft 457 kts 137°
2026-04-30 21:44 -6.34828 -57.12848 36842 ft 458 kts 137°
2026-04-30 21:44 -6.39565 -57.08559 36839 ft 459 kts 137°
2026-04-30 21:45 -6.44313 -57.04260 36839 ft 460 kts 137°
2026-04-30 21:45 -6.49073 -56.99949 36840 ft 461 kts 137°
2026-04-30 21:46 -6.53836 -56.95634 36846 ft 461 kts 137°
2026-04-30 21:46 -6.58611 -56.91306 36842 ft 461 kts 137°
2026-04-30 21:47 -6.63386 -56.86978 36838 ft 462 kts 137°
2026-04-30 21:47 -6.68151 -56.82657 36836 ft 461 kts 137°
2026-04-30 21:48 -6.72884 -56.78366 36835 ft 460 kts 137°
2026-04-30 21:48 -6.77635 -56.74055 36837 ft 460 kts 137°
2026-04-30 21:49 -6.82383 -56.69746 36839 ft 459 kts 137°
2026-04-30 21:49 -6.87124 -56.65443 36839 ft 458 kts 137°
2026-04-30 21:50 -6.91857 -56.61146 36840 ft 458 kts 137°
2026-04-30 21:50 -6.96588 -56.56848 36837 ft 457 kts 137°
2026-04-30 21:51 -7.01311 -56.52557 36837 ft 457 kts 137°
2026-04-30 21:51 -7.06031 -56.48268 36843 ft 457 kts 137°
2026-04-30 21:52 -7.10754 -56.43974 36838 ft 457 kts 137°
2026-04-30 21:52 -7.15443 -56.39710 36839 ft 457 kts 137°
2026-04-30 21:53 -7.20162 -56.35418 36845 ft 457 kts 136°
2026-04-30 21:53 -7.24888 -56.31117 36840 ft 458 kts 136°
2026-04-30 21:54 -7.29620 -56.26810 36842 ft 458 kts 136°
2026-04-30 21:54 -7.34347 -56.22506 36843 ft 458 kts 136°
2026-04-30 21:55 -7.39080 -56.18193 36839 ft 459 kts 136°
2026-04-30 21:55 -7.43782 -56.13907 36837 ft 459 kts 136°
2026-04-30 21:56 -7.48522 -56.09584 36841 ft 459 kts 136°
2026-04-30 21:56 -7.53263 -56.05258 36838 ft 460 kts 136°
2026-04-30 21:57 -7.58004 -56.00933 36839 ft 460 kts 136°
2026-04-30 21:57 -7.62753 -55.96598 36841 ft 460 kts 136°
2026-04-30 21:58 -7.67493 -55.92269 36842 ft 460 kts 136°
2026-04-30 21:58 -7.72231 -55.87942 36843 ft 460 kts 136°
2026-04-30 21:59 -7.76969 -55.83612 36846 ft 459 kts 136°
2026-04-30 22:00 -7.84048 -55.77143 36844 ft 459 kts 136°
2026-04-30 22:00 -7.91143 -55.70654 36841 ft 459 kts 136°
2026-04-30 22:01 -7.95875 -55.66325 36846 ft 459 kts 136°
2026-04-30 22:01 -8.00574 -55.62025 36847 ft 458 kts 136°
2026-04-30 22:02 -8.05301 -55.57697 36843 ft 458 kts 136°
2026-04-30 22:02 -8.10026 -55.53370 36851 ft 458 kts 136°
2026-04-30 22:03 -8.14746 -55.49046 36847 ft 458 kts 136°
2026-04-30 22:03 -8.19464 -55.44723 36848 ft 458 kts 136°
2026-04-30 22:04 -8.24178 -55.40402 36847 ft 458 kts 136°
2026-04-30 22:05 -8.31222 -55.33942 36850 ft 457 kts 136°
2026-04-30 22:05 -8.35932 -55.29621 36855 ft 457 kts 136°
2026-04-30 22:06 -8.40656 -55.25285 36857 ft 458 kts 136°
2026-04-30 22:06 -8.47701 -55.18817 36856 ft 458 kts 136°
2026-04-30 22:07 -8.52418 -55.14484 36859 ft 458 kts 136°
2026-04-30 22:07 -8.57141 -55.10145 36860 ft 459 kts 136°
2026-04-30 22:08 -8.61862 -55.05805 36862 ft 459 kts 136°
2026-04-30 22:08 -8.66589 -55.01458 36861 ft 459 kts 136°
2026-04-30 22:09 -8.71309 -54.97117 36863 ft 459 kts 136°
2026-04-30 22:09 -8.76002 -54.92798 36867 ft 459 kts 136°
2026-04-30 22:10 -8.80722 -54.88453 36867 ft 458 kts 136°
2026-04-30 22:10 -8.85436 -54.84113 36871 ft 458 kts 136°
2026-04-30 22:11 -8.92511 -54.77594 36872 ft 458 kts 136°
2026-04-30 22:12 -8.97213 -54.73260 36879 ft 457 kts 136°
2026-04-30 22:12 -9.01873 -54.68963 36880 ft 456 kts 136°
2026-04-30 22:13 -9.06568 -54.64632 36878 ft 456 kts 136°
2026-04-30 22:13 -9.11251 -54.60310 36879 ft 456 kts 136°
2026-04-30 22:14 -9.15936 -54.55985 36876 ft 455 kts 136°
2026-04-30 22:14 -9.20539 -54.51585 36874 ft 455 kts 134°
2026-04-30 22:15 -9.25018 -54.47056 36872 ft 455 kts 134°
2026-04-30 22:15 -9.29492 -54.42527 36874 ft 454 kts 134°
2026-04-30 22:16 -9.33949 -54.38047 36870 ft 455 kts 134°
2026-04-30 22:17 -9.42953 -54.29029 36872 ft 455 kts 134°
2026-04-30 22:17 -9.49701 -54.22266 36870 ft 455 kts 134°
2026-04-30 22:18 -9.56451 -54.15496 36865 ft 455 kts 134°
2026-04-30 22:19 -9.63203 -54.08720 36870 ft 455 kts 134°
2026-04-30 22:20 -9.69928 -54.01967 36868 ft 455 kts 134°
2026-04-30 22:20 -9.76682 -53.95180 36871 ft 455 kts 134°
2026-04-30 22:21 -9.81181 -53.90656 36865 ft 455 kts 134°
2026-04-30 22:21 -9.85682 -53.86129 36867 ft 455 kts 134°
2026-04-30 22:22 -9.90227 -53.81668 36868 ft 455 kts 136°
2026-04-30 22:22 -9.94893 -53.77332 36870 ft 455 kts 136°
2026-04-30 22:23 -9.99560 -53.72999 36868 ft 455 kts 136°
2026-04-30 22:23 -10.04178 -53.68677 36869 ft 454 kts 136°
2026-04-30 22:24 -10.08816 -53.64319 36869 ft 454 kts 136°
2026-04-30 22:24 -10.13446 -53.59963 36869 ft 454 kts 136°
2026-04-30 22:25 -10.18074 -53.55609 36866 ft 453 kts 136°
2026-04-30 22:25 -10.22700 -53.51257 36865 ft 453 kts 136°
2026-04-30 22:26 -10.29643 -53.44720 36866 ft 453 kts 136°
2026-04-30 22:27 -10.34261 -53.40370 36865 ft 453 kts 136°
2026-04-30 22:27 -10.41155 -53.33866 36865 ft 453 kts 136°
2026-04-30 22:28 -10.48073 -53.27326 36863 ft 452 kts 136°
2026-04-30 22:29 -10.56509 -53.19345 36865 ft 452 kts 136°
2026-04-30 22:31 -10.72627 -53.04081 36863 ft 452 kts 136°
2026-04-30 22:32 -10.84122 -52.93180 36866 ft 452 kts 136°
2026-04-30 22:33 -10.95596 -52.82288 36862 ft 452 kts 136°
2026-04-30 22:35 -11.07083 -52.71370 36863 ft 451 kts 136°
2026-04-30 22:36 -11.18560 -52.60450 36864 ft 451 kts 136°
2026-04-30 22:37 -11.27707 -52.51738 36864 ft 451 kts 136°
2026-04-30 22:38 -11.36868 -52.43004 36865 ft 451 kts 136°
2026-04-30 22:39 -11.43744 -52.36442 36865 ft 451 kts 136°
2026-04-30 22:40 -11.57569 -52.23495 36873 ft 451 kts 139°
2026-04-30 22:41 -11.69572 -52.13190 36872 ft 450 kts 139°
2026-04-30 22:43 -11.83863 -52.00742 36872 ft 450 kts 139°
2026-04-30 22:44 -11.93375 -51.92445 36874 ft 449 kts 138°
2026-04-30 22:45 -12.07568 -51.80051 36875 ft 447 kts 138°
2026-04-30 22:47 -12.21732 -51.67664 36874 ft 446 kts 138°
2026-04-30 22:48 -12.31165 -51.59404 36877 ft 446 kts 138°
2026-04-30 22:49 -12.45269 -51.47038 36880 ft 446 kts 138°
2026-04-30 22:51 -12.59207 -51.34394 36872 ft 446 kts 135°
2026-04-30 22:52 -12.65991 -51.27836 36875 ft 448 kts 136°
2026-04-30 22:53 -12.75088 -51.19125 36870 ft 450 kts 136°
2026-04-30 22:53 -12.81973 -51.12541 36869 ft 452 kts 136°
2026-04-30 22:55 -12.93481 -51.01519 36870 ft 453 kts 136°
2026-04-30 22:56 -13.02703 -50.92677 36872 ft 453 kts 137°
2026-04-30 22:57 -13.14177 -50.81661 36874 ft 452 kts 137°
2026-04-30 22:58 -13.23346 -50.72846 36877 ft 451 kts 137°
2026-04-30 22:59 -13.37075 -50.59633 36877 ft 450 kts 137°